"America/Chicago Time","Lifetime Energy (kWh)","Power (W)","AC Volts RMS (V) ","AC Amps RMS (mA)","Grid Frequency (Hz)","Inverter Temperature (C)"
"09/02/12 10:26:05","183.9421","131.4","217.68","608","60.03","32"
"09/02/12 10:31:04","183.9523","132.0","217.43","617","60.0","32"
"09/02/12 10:36:04","183.9626","135.1","218.01","627","60.03","32"
"09/02/12 10:41:04","183.9732","135.0","217.11","627","60.03","33"
"09/02/12 10:46:04","183.9838","138.2","217.15","641","60.03","33"
"09/02/12 10:51:05","183.9946","138.7","216.94","644","60.03","34"
"09/02/12 10:56:04","184.0054","140.7","217.33","654","60.03","34"
"09/02/12 11:01:04","184.0165","141.7","216.46","661","60.03","34"
"09/02/12 11:06:04","184.0276","143.6","216.21","667","60.03","35"
"09/02/12 11:11:04","184.0389","145.4","217.2","671","60.03","35"
"09/02/12 11:16:05","184.0502","144.4","218.1","671","60.0","36"
"09/02/12 11:21:05","184.0614","139.6","217.25","649","60.03","36"
"09/02/12 11:26:03","184.0722","142.3","217.2","658","60.03","36"
"09/02/12 11:31:04","184.0835","148.7","217.28","683","60.03","36"
"09/02/12 11:36:04","184.095","145.3","217.68","672","60.03","36"
"09/02/12 11:41:05","184.1065","149.7","217.4","691","60.03","36"
"09/02/12 11:46:05","184.1178","144.4","217.6","671","60.03","36"
"09/02/12 11:51:05","184.1289","140.9","216.81","657","60.03","36"
"09/02/12 11:56:03","184.1392","133.1","216.84","619","60.03","36"
"09/02/12 12:01:03","184.1499","132.1","217.44","619","60.03","36"
"09/02/12 12:06:05","184.1596","120.1","216.42","567","60.03","36"
"09/02/12 12:11:04","184.1693","129.1","216.95","602","60.0","36"
"09/02/12 12:16:04","184.1799","152.5","217.39","704","60.03","36"
"09/02/12 12:21:04","184.1911","140.7","216.6","651","60.03","36"
"09/02/12 12:26:03","184.2023","144.6","217.79","666","60.0","36"
"09/02/12 12:31:05","184.2141","144.7","217.3","665","60.03","36"
"09/02/12 12:36:04","184.2255","144.0","217.1","666","60.03","37"
"09/02/12 12:41:04","184.2346","85.4","215.35","418","60.03","36"
"09/02/12 12:46:04","184.243","146.8","216.24","680","60.0","36"
"09/02/12 12:51:04","184.2541","141.9","216.47","659","60.0","36"
"09/02/12 13:01:03","184.2768","148.6","216.83","691","60.03","37"
"09/02/12 13:06:04","184.2883","149.3","216.72","693","60.0","37"
"09/02/12 13:11:03","184.2996","145.4","216.77","674","60.0","38"
"09/02/12 13:16:05","184.3112","151.1","216.85","701","60.03","38"
"09/02/12 13:21:05","184.3229","148.0","217.1","680","60.03","38"
"09/02/12 13:26:04","184.3343","146.9","216.51","682","60.03","39"
"09/02/12 13:31:04","184.3457","146.0","217.22","677","60.0","39"
"09/02/12 13:36:03","184.357","143.5","217.02","659","60.03","39"
"09/02/12 13:41:04","184.3679","136.7","216.53","638","60.0","39"
"09/02/12 13:46:05","184.3781","120.1","215.96","565","60.0","39"
"09/02/12 13:51:04","184.3876","127.0","216.9","592","60.0","39"
"09/02/12 13:56:03","184.3982","139.8","217.09","651","60.03","39"
"09/02/12 14:01:04","184.4093","141.1","216.87","655","60.03","40"
"09/02/12 14:06:03","184.4201","137.8","217.03","642","60.03","40"
"09/02/12 14:11:05","184.4308","133.1","217.08","623","60.03","40"
"09/02/12 14:16:04","184.4407","126.3","216.11","594","60.0","40"
"09/02/12 14:21:05","184.4508","133.5","216.93","620","60.03","40"
"09/02/12 14:26:05","184.4612","133.3","217.08","619","60.03","40"
"09/02/12 14:31:04","184.4714","127.9","216.09","601","60.03","40"
"09/02/12 14:36:05","184.4813","123.6","216.64","578","60.0","40"
"09/02/12 14:41:05","184.4906","122.1","216.02","578","60.0","40"
"09/02/12 14:46:04","184.5004","125.4","215.53","592","60.03","39"
"09/02/12 14:51:04","184.5097","107.0","215.45","509","60.0","39"
"09/02/12 14:56:05","184.5184","125.2","215.65","588","60.03","39"
"09/02/12 15:01:05","184.528","122.3","216.32","577","60.03","39"
"09/02/12 15:06:03","184.5373","117.8","216.12","559","60.03","39"
"09/02/12 15:11:05","184.5466","118.0","216.75","556","60.03","39"
"09/02/12 15:16:03","184.5556","116.0","215.96","548","60.03","38"
"09/02/12 15:21:04","184.5646","112.8","215.63","537","60.0","38"
"09/02/12 15:26:03","184.5732","112.4","216.33","532","60.03","38"
"09/02/12 15:31:04","184.5819","108.7","215.68","518","60.03","38"
"09/02/12 15:36:03","184.5901","106.9","216.97","505","60.0","38"
"09/02/12 15:41:04","184.5983","103.3","216.27","496","60.03","38"
"09/02/12 15:46:04","184.6063","101.2","215.11","486","60.0","37"
"09/02/12 15:51:03","184.6141","98.3","214.88","474","60.0","37"
"09/02/12 15:56:04","184.6217","93.2","215.38","448","60.03","37"
"09/02/12 16:01:05","184.6284","77.2","215.76","382","60.03","37"
"09/02/12 16:06:03","184.6346","79.3","214.81","391","60.03","37"
"09/02/12 16:11:05","184.6412","84.0","215.09","412","60.03","37"
"09/02/12 16:16:04","184.6475","76.5","214.87","383","60.03","36"
"09/02/12 16:21:04","184.6523","47.2","215.02","184","60.0","36"
"09/02/12 16:26:05","184.6546","18.5","214.11","238","60.0","34"
"09/02/12 16:31:05","184.6561","11.8","214.64","249","60.0","33"
"09/02/12 16:36:03","184.658","20.6","214.03","211","60.03","32"
"09/02/12 16:41:04","184.66","23.5","213.73","260","60.03","32"
"09/02/12 16:46:03","184.6619","35.7","214.73","138","60.0","31"
"09/02/12 16:51:04","184.6639","27.8","214.58","82","60.03","31"
"09/02/12 16:56:03","184.6662","37.9","214.07","91","60.03","30"
"09/02/12 17:01:04","184.6701","67.9","215.11","343","60.03","30"
"09/02/12 17:06:04","184.6754","66.7","215.01","338","60.0","31"
"09/02/12 17:11:05","184.6804","61.9","215.53","455","60.03","31"
"09/02/12 17:16:05","184.6844","46.4","214.7","316","60.03","31"
"09/02/12 17:21:05","184.6882","38.8","214.53","105","60.03","31"
"09/02/12 17:26:04","184.6915","34.7","214.64","86","60.03","31"
"09/02/12 17:31:04","184.6943","29.6","213.94","156","60.07","31"
"09/02/12 17:36:03","184.6966","34.0","213.3","127","60.07","31"
"09/02/12 17:41:03","184.6988","20.8","214.08","268","60.0","31"
"09/02/12 17:46:03","184.7007","30.7","214.41","293","60.03","30"
"09/02/12 17:51:05","184.7023","15.6","213.66","32","60.03","30"
"09/02/12 17:56:04","184.7036","15.9","213.71","26","60.0","30"
"09/02/12 18:01:04","184.7048","13.7","213.1","20","60.0","30"
"09/02/12 18:06:03","184.7056","15.1","213.84","2","60.03","29"
"09/02/12 18:11:04","184.7063","13.8","213.63","0","60.0","29"
"09/02/12 18:16:04","184.7067","11.4","213.79","122","60.03","29"
"09/02/12 18:21:05","184.707","0.0","212.92","0","60.03","28"
"09/02/12 18:46:04","184.7076","14.1","212.7","10","60.0","27"
"09/03/12 07:33:28","184.7081","0.0","214.75","0","60.03","19"
"09/03/12 07:58:27","184.7094","10.4","214.83","16","60.03","21"
"09/03/12 08:03:28","184.7101","0.0","213.68","0","60.0","22"
"09/03/12 08:08:27","184.7106","0.0","213.42","0","60.0","22"
"09/03/12 08:13:27","184.7115","28.3","213.59","273","60.0","22"
"09/03/12 08:18:27","184.713","13.7","213.86","41","60.03","23"
"09/03/12 08:23:27","184.7144","15.9","214.27","149","60.0","23"
"09/03/12 08:28:27","184.7164","32.8","214.57","119","60.03","23"
"09/03/12 08:33:27","184.7194","31.9","214.04","76","60.0","24"
"09/03/12 08:38:27","184.7216","33.8","213.39","136","60.0","24"
"09/03/12 08:43:27","184.7247","69.5","215.26","353","60.03","25"
"09/03/12 08:48:27","184.7299","78.6","214.49","385","60.0","25"
"09/03/12 08:53:27","184.7351","46.5","213.8","335","60.03","26"
"09/03/12 08:58:27","184.7378","56.8","214.37","411","60.0","27"
"09/03/12 09:03:27","184.7421","68.8","214.49","408","60.03","27"
"09/03/12 09:08:26","184.7455","44.2","213.43","294","60.0","27"
"09/03/12 09:13:28","184.7478","12.8","212.98","168","60.0","27"
"09/03/12 09:18:28","184.75","35.8","213.5","211","60.0","27"
"09/03/12 09:23:27","184.7523","17.3","212.73","65","60.0","27"
"09/03/12 09:28:28","184.7544","43.0","213.52","307","60.0","27"
"09/03/12 09:33:28","184.7577","45.6","213.42","216","60.0","27"
"09/03/12 09:38:28","184.7603","35.8","213.88","114","60.0","27"
"09/03/12 09:43:27","184.764","48.2","213.42","425","60.03","28"
"09/03/12 09:48:27","184.7671","29.7","213.59","257","60.03","28"
"09/03/12 09:53:27","184.7694","35.1","212.86","50","60.0","28"
"09/03/12 09:58:27","184.7713","17.0","213.72","17","60.07","28"
"09/03/12 10:03:28","184.7731","13.3","213.31","47","60.0","28"
"09/03/12 10:08:28","184.7747","12.6","213.39","207","60.0","28"
"09/03/12 10:13:28","184.7762","21.1","212.7","19","60.03","28"
"09/03/12 10:18:28","184.7778","14.2","213.43","19","60.0","28"
"09/03/12 10:23:27","184.7794","32.3","213.78","54","60.0","28"
"09/03/12 10:28:28","184.7817","24.8","213.88","147","60.03","28"
"09/03/12 10:33:28","184.7839","21.5","213.92","323","60.0","28"
"09/03/12 10:38:28","184.7861","32.0","214.57","183","60.0","28"
"09/03/12 10:43:27","184.7886","31.9","214.24","90","60.03","28"
"09/03/12 10:48:27","184.7919","38.8","214.54","106","60.03","29"
"09/03/12 10:53:28","184.7958","67.2","216.16","364","60.03","29"
"09/03/12 10:58:28","184.8004","64.4","215.98","328","60.07","29"
"09/03/12 11:03:27","184.8065","103.4","217.14","493","60.03","30"
"09/03/12 11:08:28","184.8161","107.2","217.13","510","60.03","31"
"09/03/12 11:13:27","184.8247","89.9","216.2","436","60.0","32"
"09/03/12 11:18:28","184.8311","44.6","214.83","325","60.03","32"
"09/03/12 11:23:28","184.8349","43.9","215.76","387","60.03","32"
"09/03/12 11:28:28","184.8379","22.2","215.44","311","60.03","31"
"09/03/12 11:33:28","184.8405","38.5","214.53","267","60.0","31"
"09/03/12 11:38:27","184.8444","62.0","215.24","188","60.0","31"
"09/03/12 11:43:27","184.8476","36.4","215.37","387","60.03","31"
"09/03/12 11:48:29","184.8518","58.5","214.7","415","60.0","31"
"09/03/12 11:53:28","184.8561","41.6","215.61","291","60.03","31"
"09/03/12 11:58:27","184.8601","46.5","214.77","330","60.0","31"
"09/03/12 12:03:28","184.8633","37.6","214.96","244","60.03","31"
"09/03/12 12:08:27","184.8673","62.1","214.36","180","60.03","31"
"09/03/12 12:13:27","184.8704","33.1","214.2","85","60.03","31"
"09/03/12 12:18:27","184.8764","94.2","215.48","457","60.03","31"
"09/03/12 12:23:27","184.8836","63.3","214.66","324","60.03","32"
"09/03/12 12:28:27","184.8891","82.5","214.8","408","60.03","32"
"09/03/12 12:33:28","184.8937","50.3","214.82","165","60.0","32"
"09/03/12 12:38:27","184.8996","159.5","218.01","734","60.0","32"
"09/03/12 12:43:28","184.9117","139.3","216.51","651","60.03","33"
"09/03/12 12:48:28","184.921","161.7","216.96","745","60.0","34"
"09/03/12 12:53:28","184.9314","70.9","215.22","207","60.03","34"
"09/03/12 12:58:27","184.9408","55.1","213.88","269","60.03","35"
"09/03/12 13:03:28","184.9487","165.3","216.29","760","60.03","36"
"09/03/12 13:08:28","184.9605","171.4","217.54","776","60.03","37"
"09/03/12 13:13:28","184.9719","172.3","216.68","795","60.03","37"
"09/03/12 13:18:27","184.9719","154.7","216.63","714","60.0","37"
"09/03/12 13:23:27","184.9844","166.5","216.22","759","60.03","38"
"09/03/12 13:28:28","184.9967","153.4","215.87","716","60.03","39"
"09/03/12 13:33:27","185.009","149.9","216.24","698","60.0","39"
"09/03/12 13:38:27","185.0204","133.3","215.63","625","60.03","39"
"09/03/12 13:43:27","185.0319","150.2","216.86","696","60.03","40"
"09/03/12 13:48:27","185.0439","157.8","216.93","726","60.0","40"
"09/03/12 13:53:27","185.0557","148.1","216.52","689","60.0","41"
"09/03/12 13:58:28","185.0677","152.5","217.41","704","60.03","41"
"09/03/12 14:03:28","185.0794","148.3","216.36","684","60.03","41"
"09/03/12 14:08:27","185.0909","145.5","217.04","673","60.03","42"
"09/03/12 14:13:29","185.1022","144.5","217.23","673","60.03","42"
"09/03/12 14:18:28","185.1135","145.3","216.73","676","60.0","42"
"09/03/12 14:23:28","185.1242","104.8","215.92","502","60.03","42"
"09/03/12 14:28:28","185.1313","80.1","215.69","394","60.0","41"
"09/03/12 14:33:27","185.1377","76.8","214.37","383","60.0","40"
"09/03/12 14:38:28","185.1452","117.6","215.84","555","60.03","40"
"09/03/12 14:43:28","185.1511","49.5","213.53","396","60.03","39"
"09/03/12 14:48:27","185.1558","72.6","214.43","364","60.03","38"
"09/03/12 14:53:27","185.1606","38.0","213.3","385","60.07","38"
"09/03/12 14:58:27","185.1639","40.7","213.19","286","60.03","37"
"09/03/12 15:03:27","185.1674","52.2","213.4","360","60.03","36"
"09/03/12 15:08:28","185.1714","86.9","214.79","426","60.0","36"
"09/03/12 15:13:28","185.178","46.0","213.41","342","60.0","36"
"09/03/12 15:18:27","185.1825","127.9","214.99","601","60.0","35"
"09/03/12 15:23:27","185.1917","127.5","215.82","601","60.0","36"
"09/03/12 15:28:28","185.2012","115.7","214.52","552","60.0","37"
"09/03/12 15:33:28","185.209","115.8","214.9","549","60.0","37"
"09/03/12 15:38:28","185.2175","106.0","214.18","507","60.0","37"
"09/03/12 15:43:28","185.2259","106.7","214.4","510","60.03","38"
"09/03/12 15:48:27","185.234","102.6","215.65","492","60.0","38"
"09/03/12 15:53:28","185.2419","98.5","213.93","481","60.03","38"
"09/03/12 15:58:27","185.2495","96.3","213.96","468","60.0","38"
"09/03/12 16:03:28","185.2569","94.0","214.38","458","60.03","38"
"09/03/12 16:08:27","185.2641","90.8","212.84","445","60.03","38"
"09/03/12 16:13:27","185.271","87.9","213.68","434","60.03","38"
"09/03/12 16:18:27","185.2777","84.5","213.37","416","60.03","38"
"09/03/12 16:23:27","185.2841","81.2","213.29","404","60.0","38"
"09/03/12 16:28:27","185.2903","77.9","212.59","393","60.03","38"
"09/03/12 16:33:27","185.2962","74.5","213.24","370","60.0","38"
"09/03/12 16:38:28","185.3019","70.8","213.1","356","60.0","38"
"09/03/12 16:43:27","185.3071","66.8","213.79","338","60.03","38"
"09/03/12 16:48:27","185.3122","63.9","213.24","327","60.0","38"
"09/03/12 16:53:27","185.3169","47.9","213.16","361","60.03","37"
"09/03/12 16:58:27","185.3208","53.4","213.1","311","60.0","37"
"09/03/12 17:03:27","185.3248","60.8","212.71","301","59.96","37"
"09/03/12 17:08:28","185.3288","47.1","213.79","348","60.03","37"
"09/03/12 17:13:28","185.3324","51.9","213.29","341","60.03","37"
"09/03/12 17:18:28","185.3358","45.7","213.29","308","60.03","36"
"09/03/12 17:23:28","185.3389","43.2","213.46","83","60.03","36"
"09/03/12 17:28:28","185.3417","37.5","212.96","276","60.03","36"
"09/03/12 17:33:27","185.3441","35.0","213.93","87","60.03","36"
"09/03/12 17:38:27","185.3464","21.5","213.7","325","60.03","35"
"09/03/12 17:43:28","185.3483","31.9","213.93","229","60.0","35"
"09/03/12 17:48:28","185.35","22.0","212.55","246","60.03","35"
"09/03/12 17:53:29","185.3515","27.4","212.38","298","60.03","35"
"09/03/12 17:58:27","185.3527","14.5","213.41","21","60.03","35"
"09/03/12 18:03:28","185.3538","8.0","212.68","223","60.0","34"
"09/03/12 18:08:27","185.3546","14.8","212.28","130","60.03","34"
"09/03/12 18:13:29","185.3552","14.4","212.5","0","60.03","33"
"09/03/12 18:18:27","185.3557","0.0","212.0","0","60.03","33"
"09/03/12 18:23:27","185.356","0.0","212.7","0","60.03","33"
"09/04/12 06:53:28","185.3566","0.0","214.1","0","60.03","18"
"09/04/12 06:58:28","185.357","11.7","214.15","0","60.03","18"
"09/04/12 07:03:27","185.3576","0.0","214.06","197","60.03","18"
"09/04/12 07:08:28","185.3584","14.0","214.22","35","60.03","18"
"09/04/12 07:13:29","185.3594","11.4","213.94","10","60.03","19"
"09/04/12 07:18:28","185.3605","22.1","213.98","125","60.03","19"
"09/04/12 07:23:27","185.3619","28.4","214.17","245","60.03","19"
"09/04/12 07:28:28","185.3636","31.6","214.05","198","60.03","20"
"09/04/12 07:33:28","185.3655","30.5","213.67","164","60.03","20"
"09/04/12 07:38:29","185.3677","33.9","214.73","209","60.0","20"
"09/04/12 07:43:29","185.3702","29.5","214.46","103","60.03","21"
"09/04/12 07:48:28","185.3728","33.6","213.99","87","60.03","22"
"09/04/12 07:53:28","185.3759","36.9","212.83","184","60.03","23"
"09/04/12 07:58:29","185.3792","38.6","213.29","152","60.0","23"
"09/04/12 08:03:29","185.3829","44.9","214.54","408","60.07","24"
"09/04/12 08:08:28","185.3868","42.3","214.49","396","60.0","25"
"09/04/12 08:13:27","185.3907","40.6","214.94","394","60.03","25"
"09/04/12 08:18:27","185.3946","60.8","215.03","426","60.0","26"
"09/04/12 08:23:27","185.3991","62.6","214.29","324","60.03","26"
"09/04/12 08:28:28","185.4042","68.5","215.2","341","60.0","26"
"09/04/12 08:33:29","185.4097","71.8","215.08","361","60.0","27"
"09/04/12 08:38:28","185.4153","75.3","215.9","376","60.03","28"
"09/04/12 08:43:27","185.4213","78.4","215.48","390","60.0","28"
"09/04/12 08:48:28","185.4275","82.4","216.02","405","60.0","29"
"09/04/12 08:53:29","185.4341","85.8","215.2","417","60.03","30"
"09/04/12 08:58:27","185.4408","89.0","215.55","433","60.0","30"
"09/04/12 09:03:28","185.4479","91.6","215.53","445","60.03","31"
"09/04/12 09:08:28","185.4551","94.3","215.06","457","60.03","32"
"09/04/12 09:13:28","185.4626","97.7","216.9","470","60.03","32"
"09/04/12 09:18:29","185.4702","100.5","215.66","483","60.03","32"
"09/04/12 09:23:28","185.4781","102.1","214.94","493","60.0","33"
"09/04/12 09:28:29","185.4862","104.9","214.35","507","60.03","34"
"09/04/12 09:33:27","185.4944","107.0","215.65","510","60.0","35"
"09/04/12 09:38:27","185.5028","108.8","215.57","520","60.0","35"
"09/04/12 09:43:28","185.5114","110.9","215.74","529","60.0","36"
"09/04/12 09:48:29","185.5201","112.8","215.77","535","60.03","37"
"09/04/12 09:53:27","185.5289","114.1","215.39","545","60.03","38"
"09/04/12 09:58:28","185.5379","117.1","214.52","554","60.0","38"
"09/04/12 10:03:28","185.5471","118.8","214.68","564","60.03","38"
"09/04/12 10:08:28","185.5565","122.7","214.82","577","60.03","39"
"09/04/12 10:13:28","185.5661","124.9","216.25","586","60.0","39"
"09/04/12 10:18:28","185.5758","127.5","216.58","598","60.03","39"
"09/04/12 10:23:29","185.5859","129.4","216.59","606","60.0","39"
"09/04/12 10:28:28","185.5959","131.6","216.87","612","60.0","39"
"09/04/12 10:33:28","185.6063","132.9","215.94","621","60.0","39"
"09/04/12 10:38:29","185.6167","133.5","215.79","628","60.0","39"
"09/04/12 10:43:28","185.6271","134.4","215.02","632","60.0","39"
"09/04/12 10:48:27","185.6376","136.2","216.91","632","60.03","40"
"09/04/12 10:53:27","185.6482","136.6","217.35","639","60.03","40"
"09/04/12 10:58:28","185.6589","137.9","217.1","645","60.03","41"
"09/04/12 11:03:27","185.6696","138.6","217.71","643","60.0","41"
"09/04/12 11:08:28","185.6806","141.1","217.4","652","60.03","41"
"09/04/12 11:13:28","185.6917","142.5","217.67","652","60.0","42"
"09/04/12 11:18:28","185.7028","143.6","218.51","660","60.03","42"
"09/04/12 11:23:28","185.714","144.6","216.63","672","60.0","42"
"09/04/12 11:28:28","185.7253","145.9","216.08","680","60.03","42"
"09/04/12 11:33:29","185.7368","146.1","216.35","675","59.96","43"
"09/04/12 11:38:28","185.7482","146.3","216.25","683","60.0","43"
"09/04/12 11:43:28","185.7596","147.6","216.64","683","60.03","43"
"09/04/12 11:48:28","185.7712","148.1","216.28","688","60.0","43"
"09/04/12 11:53:28","185.7828","149.8","216.22","696","60.0","43"
"09/04/12 11:58:27","185.7944","149.8","217.4","690","60.03","43"
"09/04/12 12:03:28","185.8061","149.6","216.49","699","60.07","43"
"09/04/12 12:08:28","185.8178","149.5","215.78","693","60.03","43"
"09/04/12 12:13:27","185.8295","151.3","217.67","697","60.03","43"
"09/04/12 12:18:29","185.8413","151.7","216.65","699","60.0","43"
"09/04/12 12:23:29","185.8532","152.0","216.82","702","60.03","43"
"09/04/12 12:28:29","185.865","152.8","217.62","697","60.0","43"
"09/04/12 12:33:27","185.8768","153.0","216.9","707","60.03","43"
"09/04/12 12:38:28","185.8888","154.1","217.54","701","60.0","43"
"09/04/12 12:43:28","185.901","155.6","216.14","719","60.0","43"
"09/04/12 12:48:29","185.9127","165.0","216.06","757","60.03","42"
"09/04/12 12:53:27","185.9225","112.2","214.89","533","60.0","41"
"09/04/12 12:58:28","185.9316","94.4","214.88","460","60.03","40"
"09/04/12 13:03:29","185.9422","150.4","216.92","696","60.0","41"
"09/04/12 13:08:29","185.9529","124.2","216.67","585","60.0","41"
"09/04/12 13:13:28","185.9652","161.3","217.11","735","60.0","42"
"09/04/12 13:18:28","185.9773","152.5","217.44","701","60.0","42"
"09/04/12 13:23:28","185.9891","150.8","216.81","697","60.0","42"
"09/04/12 13:28:27","186.0008","148.5","216.6","688","60.0","42"
"09/04/12 13:33:28","186.0124","146.6","217.32","677","60.0","42"
"09/04/12 13:38:28","186.0238","144.1","216.51","671","60.03","43"
"09/04/12 13:43:28","186.035","143.4","216.15","669","60.0","43"
"09/04/12 13:48:29","186.0461","142.7","216.47","664","60.03","43"
"09/04/12 13:53:29","186.0571","140.9","217.51","655","60.0","43"
"09/04/12 13:58:28","186.068","140.7","217.43","649","60.03","43"
"09/04/12 14:03:28","186.0789","138.7","217.28","642","60.0","43"
"09/04/12 14:08:28","186.0896","137.5","216.71","645","60.03","43"
"09/04/12 14:13:29","186.1003","136.2","217.21","632","60.0","43"
"09/04/12 14:18:29","186.1109","134.4","216.84","626","60.0","43"
"09/04/12 14:23:29","186.1214","133.4","216.17","619","60.0","43"
"09/04/12 14:28:29","186.1317","133.1","216.42","619","60.0","43"
"09/04/12 14:33:29","186.142","131.6","215.83","613","60.0","43"
"09/04/12 14:38:27","186.1521","129.9","216.23","609","60.0","43"
"09/04/12 14:43:29","186.1622","128.5","216.02","605","60.03","42"
"09/04/12 14:48:27","186.172","126.4","216.4","596","60.0","42"
"09/04/12 14:53:28","186.1819","124.1","216.35","585","60.0","41"
"09/04/12 14:58:29","186.1915","122.7","216.61","577","60.03","41"
"09/04/12 15:03:28","186.201","120.4","215.87","566","60.03","41"
"09/04/12 15:08:29","186.2103","118.5","215.71","560","60.0","41"
"09/04/12 15:13:29","186.2194","116.7","215.53","547","60.03","40"
"09/04/12 15:18:27","186.2283","114.4","215.86","541","60.03","40"
"09/04/12 15:23:27","186.2371","111.3","215.17","532","60.0","39"
"09/04/12 15:28:28","186.2457","109.3","215.48","525","60.03","39"
"09/04/12 15:33:29","186.2541","106.8","215.41","511","60.03","39"
"09/04/12 15:38:29","186.2623","104.2","214.96","495","60.0","39"
"09/04/12 15:43:28","186.2703","101.8","215.65","490","60.03","38"
"09/04/12 15:48:28","186.2781","99.0","214.78","479","60.03","38"
"09/04/12 15:53:28","186.2858","96.3","215.48","470","60.03","38"
"09/04/12 15:58:28","186.292","39.0","215.05","73","60.03","37"
"09/04/12 16:03:29","186.2993","93.3","215.32","453","60.0","37"
"09/04/12 16:08:27","186.3063","88.8","216.05","432","60.0","37"
"09/04/12 16:13:29","186.3114","88.1","215.84","428","60.0","36"
"09/04/12 16:18:29","186.3179","82.4","215.39","402","60.0","35"
"09/04/12 16:23:27","186.324","78.3","215.15","387","60.03","35"
"09/04/12 16:28:27","186.33","74.2","214.86","369","60.03","34"
"09/04/12 16:33:29","186.3356","70.7","215.12","354","60.03","34"
"09/04/12 16:38:27","186.341","67.2","215.25","342","60.03","34"
"09/04/12 16:43:29","186.3461","63.2","213.67","326","60.03","34"
"09/04/12 16:48:29","186.3506","42.8","213.94","305","60.03","33"
"09/04/12 16:53:29","186.3547","44.3","213.63","361","60.03","33"
"09/04/12 16:58:28","186.3587","44.5","214.97","388","60.03","33"
"09/04/12 17:03:28","186.3627","44.0","214.13","365","60.0","32"
"09/04/12 17:08:29","186.3664","50.8","214.15","375","60.0","32"
"09/04/12 17:13:29","186.3699","36.5","214.65","246","60.0","32"
"09/04/12 17:18:28","186.373","33.6","214.43","236","60.0","31"
"09/04/12 17:23:27","186.3759","38.3","213.92","268","60.0","31"
"09/04/12 17:28:27","186.3784","28.7","213.6","183","60.03","30"
"09/04/12 17:33:27","186.3808","32.9","213.25","217","60.0","30"
"09/04/12 17:38:28","186.3828","15.3","212.96","221","60.0","29"
"09/04/12 17:43:29","186.3844","29.1","213.36","121","60.03","29"
"09/04/12 17:48:28","186.3857","8.7","212.09","205","60.03","29"
"09/04/12 17:53:29","186.3861","0.0","211.64","0","60.0","28"
"09/05/12 07:58:28","186.3868","0.0","213.27","0","60.03","22"
"09/05/12 08:03:29","186.3872","12.4","213.09","0","60.07","22"
"09/05/12 08:08:29","186.3876","14.1","212.21","1","60.03","22"
"09/05/12 08:13:28","186.3881","12.5","211.2","84","60.03","22"
"09/05/12 08:18:29","186.3889","13.8","212.01","15","60.0","23"
"09/05/12 08:23:29","186.3898","14.3","212.62","25","60.03","23"
"09/05/12 08:28:29","186.3906","0.0","213.01","0","60.0","23"